#timestamp,LO_Frequency,Hit 
1503561615.9,286047004.3,N
1503561635.7,286047005.8,N
1503561655.5,286047005.5,N
1503561675.4,286047005.4,N
1503561695.2,286047000.4,N
1503561715.0,286046996.5,N
1503561715.9,286046996.5,N
1503561735.8,286046997.1,N
1503561755.6,286046997.9,N
1503561775.4,286046996.8,N
1503561795.3,286046994.9,N
1503561815.1,286047001.2,N
1503561816.0,286047001.2,N
1503561835.8,286047000.9,N
1503561855.7,286047001.5,N
1503561875.5,286047002.1,N
1503561895.3,286047002.4,N
1503561915.2,286046998.7,N
1503561935.9,286047002.2,N
1503561955.7,286047003.0,N
1503561975.5,286046999.8,N
1503561995.4,286046999.8,N
1503562015.2,286047002.6,N
1503562035.0,286047004.3,N
1503562035.9,286047004.3,N
1503562055.8,286047004.9,N
1503562075.6,286047004.1,N
1503562095.4,286047003.3,N
1503562115.3,286047003.6,N
1503562135.1,286047003.2,N
1503562155.8,286047003.2,N
1503562175.7,286047001.4,N
1503562195.5,286047005.5,N
1503562215.3,286047003.0,N
1503562235.2,286047001.6,N
1503562255.9,286047002.7,N
1503562275.7,286047001.0,N
1503562295.6,286046999.9,N
1503562315.4,286046998.7,N
1503562335.2,286046999.9,N
1503562355.1,286047000.8,N
1503562356.0,286047000.8,N
1503562375.8,286047001.0,N
1503562395.6,286046999.5,N
1503562415.4,286046997.7,N
1503562435.3,286046999.5,N
1503562455.1,286047000.3,N
1503562475.8,286046999.3,N
1503562495.7,286047000.8,N
1503562515.5,286046998.6,N
1503562535.3,286047000.3,N
1503562555.2,286046998.3,N
1503562575.9,286046999.3,N
1503562595.7,286047000.6,N
1503562615.6,286046999.0,N
1503562635.4,286046998.6,N
1503562655.2,286047001.8,N
1503562675.1,286047002.7,N
1503562676.0,286047002.7,N
1503562695.8,286047003.9,N
1503562715.6,286046996.5,N
1503562735.5,286046996.8,N
1503562755.3,286046998.7,N
1503562775.1,286046997.7,N
1503562795.8,286046997.2,N
1503562815.7,286046999.2,N
1503562835.5,286046999.3,N
1503562855.3,286046999.9,N
1503562875.2,286047001.7,N
1503562895.0,286047000.4,N
1503562895.9,286047000.4,N
1503562915.7,286047000.7,N
1503562935.6,286047000.6,N
1503562955.4,286047003.5,N
1503562975.2,286047002.1,N
1503562995.1,286047000.6,N
1503562996.0,286047000.6,N
1503563015.8,286046998.5,N
1503563035.6,286046999.6,N
1503563055.5,286046999.2,N
1503563075.3,286046997.9,N
1503563095.1,286046997.6,N
1503563115.9,286046994.8,N
1503563135.7,286046991.3,P
1503563155.5,286046991.4,N
1503563175.4,286046990.2,N
1503563195.2,286046992.4,N
1503563215.0,286046993.3,N
1503563215.9,286046993.3,N
1503563235.8,286046996.0,N
1503563255.6,286046996.3,N
1503563275.4,286046996.7,N
1503563295.3,286046996.3,N
1503563315.1,286046995.7,N
1503563316.0,286046995.7,N
1503563335.8,286046996.4,N
1503563355.7,286046995.7,N
1503563375.5,286046996.5,N
1503563395.3,286047000.0,N
1503563415.1,286046998.6,N
1503563435.9,286046999.8,N
1503563455.7,286046999.1,N
1503563475.5,286046996.0,N
1503563495.4,286046995.9,N
1503563515.2,286046997.4,N
1503563535.0,286047004.4,N
1503563535.9,286047004.4,N
1503563555.8,286047004.1,N
1503563575.6,286047001.5,N
1503563595.4,286046998.2,N
1503563615.3,286046998.6,N
1503563635.1,286047001.4,N
1503563636.0,286047001.4,N
1503563655.8,286047002.5,N
1503563675.7,286047002.7,N
1503563695.5,286047000.9,N
1503563715.3,286047000.1,N
1503563735.1,286046999.5,N
1503563755.9,286047000.9,N
1503563775.7,286046998.4,N
1503563795.5,286047000.2,N
1503563815.4,286047002.3,N
1503563835.2,286047001.0,N
1503563855.0,286047001.0,N
1503563855.9,286047001.0,N
1503563875.8,286047002.8,N
1503563895.6,286046998.4,N
1503563915.4,286046997.0,N
1503563935.3,286046997.3,N
1503563955.1,286046998.9,N
1503563956.0,286046998.9,N
1503563975.8,286046997.4,N
1503563995.7,286046995.5,N
1503564015.5,286046993.6,N
1503564035.3,286046995.3,N
1503564055.2,286046994.5,N
1503564075.9,286046990.1,P
1503564095.7,286046992.7,N
1503564115.6,286046994.6,N
1503564135.4,286046995.7,N
1503564155.2,286046997.5,N
1503564175.1,286046995.3,N
1503564176.0,286046995.3,N
1503564195.8,286046996.3,N
1503564215.6,286047002.4,N
1503564235.4,286047000.9,N
1503564255.3,286046998.2,N
1503564275.1,286046997.6,N
1503564295.8,286046998.2,N
1503564315.7,286047002.3,N
1503564335.5,286047000.1,N
1503564355.3,286047003.8,N
1503564375.2,286047004.2,N
1503564395.9,286046999.9,N
1503564415.7,286047000.7,N
1503564435.6,286046997.6,N
1503564455.4,286046998.0,N
1503564475.2,286046997.9,N
1503564495.1,286046995.6,N
1503564496.0,286046995.6,N
1503564515.8,286046991.9,N
1503564535.6,286046992.6,N
1503564555.5,286046994.0,N
1503564575.3,286046993.4,N
1503564595.1,286046994.5,N
1503564615.8,286046992.4,N
1503564635.7,286046993.1,N
1503564655.5,286046993.0,N
1503564675.3,286046993.9,N
1503564695.2,286046993.7,N
1503564715.9,286046992.5,N
1503564735.7,286046992.7,N
1503564755.6,286046991.2,N
1503564775.4,286046991.2,N
1503564795.2,286046992.1,N
1503564815.1,286046995.5,N
1503564816.0,286046995.5,N
1503564835.8,286046994.6,N
1503564855.6,286046992.6,N
1503564875.5,286046992.7,N
1503564895.3,286046994.0,N
1503564915.1,286046997.2,N
1503564935.9,286046997.9,N
1503564955.7,286046999.5,N
1503564975.5,286046991.8,P
1503564995.4,286047001.1,N
1503565015.2,286046998.6,N
1503565035.0,286046999.3,N
1503565035.9,286046999.3,N
1503565055.0,286046995.3,N
1503565055.9,286046995.3,N
1503565075.8,286046997.4,N
1503565095.6,286047000.0,N
1503565115.4,286047001.1,N
1503565135.2,286047000.0,N
1503565155.1,286046996.9,N
1503565156.0,286046996.9,N
1503565175.9,286046997.2,N
1503565195.7,286046997.7,N
